Location: Chaumontel
(49.1247°N, 2.4324°E)
Time: 06:30:28
(UTC+00:00)

COSMOS 2428 - Pass Details

Date: 10 August 2024
Orbit: 842 x 857 km, 70.9° (Epoch: 08 September)

Event Time Altitude Azimuth Distance (km) Brightness Sun altitude
Exits shadow 03:53:50 - 258° (WSW) 2,811 4.8 -6.8°
Reaches altitude 10° 03:54:57 10° 265° (W) 2,474 4.6 -6.7°
Maximum altitude 03:59:29 24° 318° (NW) 1,696 4.2 -6.0°
Drops below altitude 10° 04:04:04 10° 11° (NNE) 2,492 5.8 -5.4°
Sets 04:07:02 0° 26° (NNE) 3,434 6.9 -5.0°
